Wind_Speed
20 20 20 20 20 21 21 21 20 20 20 20 19 20 19 19 20 20 20 20 19 19 19 20 19 19 19 19 19 19 19 19 19 18 18 18 18 18
20 20 20 20 20 21 21 21 21 21 21 21 20 21 21 21 21 21 21 20 21 20 20 20 21 21 21 21 20 20 20 19 19 19 20 20 19 19
20 20 21 20 21 22 22 22 22 22 21 22 22 22 22 22 22 22 22 21 21 21 22 21 21 22 22 22 22 22 21 21 21 21 20 21 21 20
20 21 21 21 21 22 22 22 22 22 22 22 22 22 23 23 23 23 22 22 22 22 22 22 23 22 22 22 23 23 23 23 23 23 22 22 22 22
21 21 21 21 21 21 21 22 22 22 22 22 22 23 24 23 23 24 23 23 23 23 22 22 23 23 23 23 23 24 24 24 24 24 24 24 23 23
21 21 21 21 21 22 22 22 22 23 23 22 23 23 24 24 24 24 24 24 24 25 24 24 24 24 24 24 24 24 24 24 25 25 24 24 23 23
21 22 22 22 21 22 23 23 23 23 24 24 24 24 25 25 25 25 25 25 25 26 25 24 24 24 24 25 25 26 25 25 24 24 24 24 24 24
22 22 23 23 23 24 24 24 24 24 24 24 25 25 25 26 26 26 25 25 26 26 26 26 26 25 25 25 26 26 26 26 25 24 24 25 25 25
24 24 24 24 25 26 26 25 25 25 25 25 26 26 26 27 27 27 26 26 25 26 27 27 27 26 26 26 26 26 27 27 26 26 25 25 26 26
25 25 25 25 26 27 27 26 26 26 26 26 26 26 27 28 28 28 28 28 28 28 28 27 27 27 27 27 27 27 27 27 27 27 27 27 27 26
26 26 27 26 27 27 27 27 27 27 28 28 28 29 29 29 29 29 28 29 29 29 29 29 28 28 28 28 28 28 28 28 28 28 28 28 28 27
27 28 28 28 27 28 28 28 28 29 29 29 30 30 30 29 30 30 30 30 30 30 30 30 30 30 29 29 29 29 30 30 30 30 30 29 29 29
28 29 29 29 28 29 29 29 29 29 30 30 30 30 30 30 30 31 31 31 31 31 31 31 31 31 30 31 31 32 32 32 31 31 30 30 30 30
28 29 29 29 29 29 30 31 31 31 31 31 31 31 32 32 32 32 32 32 32 32 32 32 32 32 32 32 32 32 33 32 32 32 32 32 32 32
29 29 30 30 30 31 31 31 32 32 33 33 33 33 33 33 33 33 33 33 33 33 33 33 33 33 33 33 33 33 33 33 33 33 33 33 33 34
31 31 32 32 31 31 32 32 32 33 33 33 33 33 34 34 34 34 33 33 34 34 34 33 33 34 33 33 34 34 34 34 35 35 35 35 35 35
31 31 32 32 32 32 32 32 32 33 33 33 33 33 33 34 34 35 35 34 34 34 34 33 34 34 34 34 34 34 35 35 36 36 36 36 37 37
32 31 31 31 32 32 32 32 32 32 33 33 34 34 34 34 34 34 34 35 34 34 35 35 35 35 35 35 35 35 36 36 37 37 37 37 37 38
31 31 31 31 31 32 32 32 32 31 32 33 33 34 34 35 35 35 35 35 36 36 36 36 37 37 36 35 35 36 37 37 37 38 38 38 38 38
30 30 31 31 31 31 32 32 32 32 32 33 33 34 35 35 35 36 36 36 36 37 37 37 37 38 37 37 38 38 38 38 38 38 38 38 38 39
30 30 30 30 30 31 32 32 33 33 34 34 34 34 35 36 37 37 37 37 37 38 38 37 37 37 38 38 38 38 38 39 39 38 38 38 38 38
31 31 30 30 31 31 32 33 33 34 34 35 35 35 35 35 36 37 37 37 37 38 38 38 38 37 37 37 38 38 38 38 39 39 38 38 37 37
31 31 31 31 32 32 32 33 33 34 35 35 36 35 35 35 35 36 36 37 37 37 38 38 37 37 37 38 37 37 38 38 38 38 38 38 38 37
Wind_Direction
266 264 262 260 260 261 261 259 258 258 257 257 258 260 259 258 260 261 261 260 259 261 260 261 262 264 264 264 266 267 267 265 264 263 262 263 264 265
262 262 262 261 260 260 260 259 257 257 258 257 258 259 260 261 260 261 262 261 260 263 263 263 263 265 265 264 265 266 263 263 264 263 261 262 264 266
260 260 261 262 261 261 261 260 258 257 256 257 258 260 261 262 262 261 260 262 261 263 264 265 264 265 266 265 264 264 263 263 263 263 264 264 263 265
260 260 261 262 261 260 260 260 259 257 257 259 258 259 261 262 262 262 263 262 262 264 266 265 266 265 266 264 265 265 264 263 262 263 263 264 264 264
259 259 261 261 260 259 259 258 259 258 259 261 259 259 261 261 262 263 264 263 262 262 266 268 268 267 266 265 265 265 264 264 264 264 263 264 265 264
258 258 259 259 260 259 259 259 260 259 260 261 261 262 262 262 262 263 264 264 265 265 265 267 268 268 267 265 265 265 265 265 264 263 263 263 263 264
258 257 258 259 260 260 260 260 261 261 261 261 261 261 261 261 261 262 263 264 265 266 266 267 268 268 267 266 265 266 265 264 264 264 263 263 263 263
260 260 260 259 259 260 260 261 261 262 263 263 262 261 260 260 261 262 264 264 265 266 265 266 268 269 268 266 265 264 264 265 265 265 265 265 265 264
263 262 262 262 261 260 260 262 263 263 264 265 264 263 262 260 261 262 263 264 265 265 265 266 267 268 268 266 265 265 265 265 264 264 264 265 266 265
266 264 263 264 263 262 261 261 262 263 265 266 266 265 265 263 262 263 263 264 265 265 265 265 266 266 266 266 266 267 266 265 265 265 264 264 265 265
267 266 265 265 264 264 263 261 261 263 265 266 268 268 267 266 264 263 264 265 265 265 264 264 265 266 265 265 266 266 266 266 265 265 264 264 264 264
267 267 267 266 265 264 265 263 262 263 264 266 267 267 267 266 266 265 265 265 265 264 264 264 265 264 263 265 266 267 267 266 265 265 263 263 264 264
268 268 267 267 267 266 266 265 263 263 264 265 267 267 267 267 266 267 267 266 264 263 263 264 264 264 264 265 265 266 266 266 265 264 263 263 264 264
270 269 268 268 269 269 267 266 265 265 265 267 268 268 268 268 268 268 267 266 265 263 264 265 265 265 265 265 265 264 263 263 263 263 263 263 263 264
269 268 268 268 269 270 269 267 265 265 266 267 267 267 267 267 267 267 266 265 264 263 264 265 265 266 265 265 265 263 262 262 262 262 262 263 263 263
271 271 270 269 269 270 269 267 266 265 265 265 265 265 266 267 268 268 267 266 265 263 263 264 265 264 265 265 265 263 262 262 263 263 263 263 264 264
273 273 272 272 271 270 270 269 268 267 266 266 265 265 266 266 267 268 268 267 266 264 263 264 264 264 262 263 264 263 262 262 262 263 263 263 264 264
272 272 272 272 272 271 270 271 270 268 266 267 266 266 266 266 267 268 268 268 266 264 264 265 266 265 263 263 263 263 264 263 263 263 263 265 265 265
273 272 272 272 272 272 271 271 271 269 268 267 267 267 266 266 266 267 268 269 267 265 264 265 266 265 264 263 262 263 264 263 263 263 264 265 265 265
276 275 273 271 271 271 271 271 271 269 268 267 267 267 267 267 266 266 268 269 268 266 265 266 266 265 264 264 263 263 263 263 263 264 264 265 264 264
276 276 275 273 272 272 271 271 271 270 269 267 267 267 266 267 267 267 268 268 268 267 265 267 267 266 264 264 264 264 263 263 264 264 264 265 264 265
277 276 276 275 274 273 273 273 272 270 270 269 269 268 266 267 268 268 268 268 267 267 267 267 267 266 265 265 265 265 264 265 265 265 264 265 266 266
277 276 276 276 275 274 274 274 273 272 271 270 270 269 268 267 267 268 268 268 268 269 269 268 267 267 265 264 265 265 265 265 266 266 265 265 266 266
Height
5782 5782 5783 5784 5784 5785 5785 5786 5788 5788 5789 5789 5789 5789 5790 5791 5791 5792 5792 5792 5793 5793 5793 5793 5793 5793 5793 5793 5792 5792 5792 5792 5792 5792 5792 5792 5792 5792
5776 5776 5777 5778 5779 5779 5780 5780 5781 5782 5783 5783 5784 5784 5784 5785 5786 5786 5786 5787 5787 5787 5787 5787 5787 5787 5787 5787 5787 5786 5786 5786 5786 5786 5786 5787 5787 5787
5770 5770 5771 5772 5773 5773 5774 5774 5775 5776 5777 5777 5778 5778 5779 5779 5780 5780 5780 5781 5781 5781 5781 5781 5781 5781 5781 5780 5780 5780 5780 5780 5781 5781 5781 5781 5781 5781
5763 5764 5765 5766 5766 5767 5768 5768 5769 5769 5770 5771 5771 5772 5772 5773 5773 5774 5774 5774 5774 5775 5774 5774 5774 5774 5774 5774 5774 5774 5774 5774 5774 5774 5775 5775 5775 5775
5757 5758 5758 5759 5760 5761 5761 5762 5763 5763 5764 5764 5765 5765 5766 5766 5767 5767 5767 5768 5768 5768 5767 5768 5767 5767 5767 5767 5767 5767 5767 5767 5768 5768 5768 5768 5768 5769
5751 5751 5752 5753 5754 5754 5755 5756 5756 5757 5757 5757 5758 5758 5758 5759 5760 5760 5760 5761 5761 5761 5761 5760 5760 5760 5759 5759 5760 5760 5760 5760 5760 5761 5761 5761 5762 5762
5744 5745 5746 5746 5747 5748 5748 5749 5749 5749 5750 5750 5751 5751 5751 5752 5753 5753 5753 5753 5753 5753 5753 5753 5752 5752 5752 5752 5752 5752 5753 5753 5753 5754 5754 5755 5755 5755
5737 5738 5738 5739 5740 5740 5741 5741 5742 5742 5742 5743 5743 5744 5744 5744 5745 5745 5745 5746 5746 5747 5746 5745 5745 5745 5745 5744 5745 5745 5745 5746 5746 5747 5747 5747 5748 5748
5731 5731 5731 5732 5732 5733 5733 5734 5734 5734 5735 5735 5735 5735 5735 5736 5736 5737 5737 5738 5738 5738 5738 5738 5738 5738 5737 5737 5737 5738 5738 5739 5739 5739 5740 5740 5740 5741
5723 5724 5724 5724 5724 5725 5725 5726 5726 5726 5727 5727 5727 5727 5727 5727 5727 5728 5728 5729 5730 5730 5730 5730 5730 5730 5730 5730 5730 5730 5730 5731 5731 5731 5732 5732 5732 5733
5715 5716 5716 5716 5716 5716 5717 5717 5718 5718 5718 5718 5718 5718 5718 5718 5718 5719 5719 5720 5721 5721 5721 5721 5722 5722 5721 5721 5721 5722 5722 5722 5722 5723 5723 5723 5724 5725
5707 5707 5707 5707 5707 5707 5707 5708 5708 5709 5709 5709 5709 5709 5708 5708 5708 5709 5710 5710 5711 5711 5712 5712 5712 5712 5713 5713 5713 5713 5713 5713 5713 5714 5714 5715 5715 5716
5698 5698 5698 5698 5698 5698 5698 5698 5699 5699 5699 5699 5699 5699 5698 5698 5699 5699 5699 5700 5701 5701 5702 5702 5703 5703 5703 5704 5704 5703 5703 5703 5704 5704 5705 5705 5706 5707
5688 5689 5688 5688 5688 5688 5688 5688 5688 5689 5689 5688 5688 5688 5688 5688 5688 5688 5688 5689 5689 5691 5691 5692 5692 5692 5693 5693 5693 5693 5693 5693 5694 5694 5695 5696 5696 5697
5679 5679 5678 5678 5678 5677 5677 5677 5677 5678 5678 5678 5677 5677 5677 5677 5677 5677 5677 5677 5678 5679 5680 5681 5681 5681 5681 5682 5682 5682 5683 5683 5684 5685 5685 5686 5686 5687
5668 5668 5668 5667 5667 5666 5666 5666 5666 5666 5666 5666 5666 5666 5666 5666 5666 5666 5666 5667 5667 5668 5669 5669 5670 5670 5670 5671 5671 5671 5672 5673 5674 5674 5675 5675 5676 5676
5658 5657 5657 5656 5656 5656 5655 5654 5654 5654 5655 5655 5655 5655 5655 5656 5656 5655 5655 5656 5656 5657 5658 5658 5659 5659 5659 5660 5660 5661 5661 5662 5663 5663 5664 5664 5665 5665
5647 5647 5646 5646 5645 5645 5644 5644 5644 5644 5644 5644 5644 5644 5645 5645 5645 5645 5645 5645 5646 5646 5647 5647 5647 5648 5648 5649 5649 5650 5650 5651 5651 5652 5652 5653 5653 5653
5636 5636 5635 5635 5634 5634 5634 5634 5634 5633 5633 5633 5634 5634 5634 5634 5634 5634 5634 5634 5634 5635 5635 5635 5636 5636 5636 5638 5638 5638 5638 5639 5639 5640 5640 5641 5641 5641
5626 5625 5625 5624 5624 5624 5624 5623 5623 5623 5622 5622 5623 5623 5623 5623 5623 5623 5623 5623 5623 5623 5623 5623 5623 5624 5625 5626 5626 5626 5626 5627 5627 5628 5628 5628 5629 5629
5615 5614 5614 5613 5613 5613 5613 5612 5612 5612 5611 5611 5611 5611 5611 5611 5611 5611 5611 5611 5611 5611 5611 5611 5611 5612 5612 5612 5613 5614 5614 5614 5615 5616 5616 5616 5616 5617
5605 5604 5604 5603 5603 5602 5602 5602 5601 5601 5600 5600 5600 5599 5599 5599 5599 5599 5599 5599 5599 5599 5599 5599 5599 5599 5599 5600 5601 5602 5602 5602 5602 5603 5603 5604 5604 5605
5594 5594 5593 5593 5592 5592 5591 5591 5590 5589 5589 5588 5588 5588 5588 5588 5587 5587 5587 5587 5587 5587 5586 5586 5586 5586 5587 5588 5589 5589 5590 5590 5590 5591 5591 5592 5592 5593